When you browse on this site, cookies collect data to enhance your experience and personalize the content and advertising you see.
Visit our Privacy Policy to learn more. By continuing to use the site, you agree to this use of cookies and data.
  • In Hungary
  • List of Countries
  • For 7 days
  • Water Temperature
  • Weather Map
  • News
  • Weather Widgets
  • user-avatar
    Login

    Hourly Weather Pahtazaribdar

    Today, 7 December, Saturday

    Time Temperature Precipitation Wind Pressure Humidity
    00:00 +4°C° 0 mm 1 mps 737 mmHg 85%
    01:00 +4°C° 0 mm 1 mps 737 mmHg 85%
    02:00 +4°C° 0 mm 1 mps 737 mmHg 86%
    03:00 +4°C° 0 mm 1 mps 736 mmHg 85%
    04:00 +4°C° 0 mm 1 mps 736 mmHg 85%
    05:00 +4°C° 0 mm 1 mps 736 mmHg 84%
    06:00 +4°C° 0 mm 1 mps 736 mmHg 83%
    07:00 +4°C° 0 mm 1 mps 736 mmHg 81%
    08:00 +5°C° 0 mm 1 mps 736 mmHg 79%
    09:00 +6°C° 0 mm 1 mps 736 mmHg 74%
    10:00 +8°C° 0 mm 1 mps 736 mmHg 69%
    11:00 +10°C° 0 mm 1 mps 736 mmHg 62%
    12:00 +10°C° 0 mm 1 mps 736 mmHg 61%
    13:00 +11°C° 0 mm 1 mps 735 mmHg 59%
    14:00 +12°C° 0 mm 1 mps 735 mmHg 58%
    15:00 +11°C° 0 mm 1 mps 734 mmHg 62%
    16:00 +10°C° 0 mm 1 mps 734 mmHg 67%
    17:00 +8°C° 0 mm 1 mps 734 mmHg 72%
    18:00 +8°C° 0 mm 1 mps 734 mmHg 72%
    19:00 +8°C° 0 mm 1 mps 734 mmHg 72%
    20:00 +7°C° 0 mm 1 mps 734 mmHg 71%
    21:00 +7°C° 0 mm 1 mps 734 mmHg 70%
    22:00 +7°C° 0 mm 1 mps 734 mmHg 68%
    23:00 +7°C° 0 mm 1 mps 734 mmHg 66%

    Tomorrow, 8 December, Sunday

    Time Temperature Precipitation Wind Pressure Humidity
    00:00 +7°C° 0 mm 1 mps 733 mmHg 65%
    01:00 +7°C° 0 mm 1 mps 733 mmHg 64%
    02:00 +7°C° 0 mm 1 mps 732 mmHg 64%
    03:00 +7°C° 0 mm 1 mps 732 mmHg 62%
    04:00 +7°C° 0 mm 1 mps 732 mmHg 61%
    05:00 +7°C° 0 mm 1 mps 731 mmHg 60%
    06:00 +6°C° 0 mm 2 mps 731 mmHg 59%
    07:00 +6°C° 0 mm 2 mps 731 mmHg 58%
    08:00 +6°C° 0 mm 2 mps 731 mmHg 57%
    09:00 +8°C° 0 mm 2 mps 731 mmHg 53%
    10:00 +10°C° 0 mm 2 mps 731 mmHg 48%
    11:00 +13°C° 0 mm 2 mps 731 mmHg 44%
    12:00 +13°C° 0 mm 2 mps 730 mmHg 43%
    13:00 +14°C° 0 mm 2 mps 730 mmHg 42%
    14:00 +15°C° 0 mm 2 mps 729 mmHg 40%
    15:00 +13°C° 0 mm 2 mps 729 mmHg 45%
    16:00 +12°C° 0 mm 2 mps 728 mmHg 50%
    17:00 +9°C° 0 mm 2 mps 728 mmHg 55%
    18:00 +9°C° 0 mm 2 mps 728 mmHg 55%
    19:00 +8°C° 0 mm 3 mps 728 mmHg 54%
    20:00 +8°C° 0 mm 3 mps 727 mmHg 54%
    21:00 +7°C° 0 mm 3 mps 727 mmHg 53%
    22:00 +7°C° 0 mm 3 mps 727 mmHg 53%
    23:00 +7°C° 0 mm 2 mps 726 mmHg 53%

    Day after tomorrow, 9 December, Monday

    Time Temperature Precipitation Wind Pressure Humidity
    00:00 +7°C° 0 mm 2 mps 726 mmHg 53%
    01:00 +7°C° 0 mm 2 mps 726 mmHg 52%
    02:00 +7°C° 0 mm 2 mps 725 mmHg 52%
    03:00 +6°C° 0 mm 2 mps 725 mmHg 51%
    04:00 +6°C° 0 mm 2 mps 725 mmHg 51%
    05:00 +6°C° 0 mm 2 mps 725 mmHg 50%
    06:00 +7°C° 0 mm 1 mps 725 mmHg 49%
    07:00 +7°C° 0 mm 1 mps 725 mmHg 48%
    08:00 +7°C° 0 mm 1 mps 725 mmHg 47%
    09:00 +9°C° 0 mm 1 mps 725 mmHg 43%
    10:00 +11°C° 0 mm 1 mps 725 mmHg 39%
    11:00 +13°C° 0 mm 1 mps 725 mmHg 35%
    12:00 +12°C° 0 mm 0 mps 725 mmHg 34%
    13:00 +13°C° 0 mm 0 mps 724 mmHg 34%
    14:00 +14°C° 0 mm 0 mps 724 mmHg 33%
    15:00 +12°C° 0 mm 0 mps 724 mmHg 36%
    16:00 +11°C° 0 mm 0 mps 724 mmHg 40%
    17:00 +10°C° 0 mm 0 mps 724 mmHg 43%
    18:00 +10°C° 0 mm 0 mps 724 mmHg 42%
    19:00 +10°C° 0 mm 1 mps 724 mmHg 42%
    20:00 +10°C° 0 mm 1 mps 725 mmHg 42%
    21:00 +10°C° 0 mm 1 mps 725 mmHg 41%
    22:00 +9°C° 0 mm 2 mps 725 mmHg 40%
    23:00 +9°C° 0 mm 2 mps 725 mmHg 40%

    10 December, Tuesday

    Time Temperature Precipitation Wind Pressure Humidity
    00:00 +9°C° 0 mm 2 mps 725 mmHg 39%
    01:00 +10°C° 0 mm 1 mps 725 mmHg 38%
    02:00 +11°C° 0 mm 1 mps 725 mmHg 37%
    03:00 +11°C° 0 mm 1 mps 725 mmHg 38%
    04:00 +11°C° 0 mm 1 mps 725 mmHg 38%
    05:00 +11°C° 0 mm 1 mps 725 mmHg 39%
    06:00 +11°C° 0 mm 1 mps 725 mmHg 42%
    07:00 +11°C° 0 mm 1 mps 725 mmHg 44%
    08:00 +10°C° 0 mm 1 mps 725 mmHg 47%
    09:00 +12°C° 0 mm 1 mps 726 mmHg 46%
    10:00 +13°C° 0 mm 1 mps 726 mmHg 45%
    11:00 +14°C° 0 mm 1 mps 726 mmHg 43%
    12:00 +14°C° 0 mm 1 mps 726 mmHg 43%
    13:00 +15°C° 0 mm 1 mps 726 mmHg 43%
    14:00 +16°C° 0 mm 2 mps 726 mmHg 42%
    15:00 +14°C° 0 mm 2 mps 726 mmHg 46%
    16:00 +13°C° 0 mm 1 mps 726 mmHg 50%
    17:00 +12°C° 0 mm 1 mps 726 mmHg 54%
    18:00 +11°C° 0 mm 1 mps 726 mmHg 56%
    19:00 +11°C° 0 mm 1 mps 726 mmHg 58%
    20:00 +9°C° 0 mm 0 mps 726 mmHg 59%
    21:00 +10°C° 0 mm 1 mps 726 mmHg 60%
    22:00 +10°C° 0 mm 1 mps 726 mmHg 60%
    23:00 +9°C° 0 mm 1 mps 726 mmHg 61%

    11 December, Wednesday

    Time Temperature Precipitation Wind Pressure Humidity
    00:00 +8°C° 0 mm 0 mps 726 mmHg 61%
    01:00 +8°C° 0 mm 0 mps 726 mmHg 61%
    02:00 +8°C° 0 mm 0 mps 726 mmHg 61%
    03:00 +8°C° 0 mm 0 mps 725 mmHg 62%
    04:00 +8°C° 0 mm 0 mps 725 mmHg 62%
    05:00 +8°C° 0 mm 0 mps 725 mmHg 62%
    06:00 +8°C° 0 mm 0 mps 725 mmHg 63%
    07:00 +8°C° 0 mm 0 mps 725 mmHg 64%
    08:00 +9°C° 0 mm 1 mps 725 mmHg 65%
    09:00 +10°C° 0 mm 1 mps 726 mmHg 63%
    10:00 +10°C° 0 mm 0 mps 726 mmHg 61%
    11:00 +11°C° 0 mm 0 mps 726 mmHg 59%
    12:00 +12°C° 0 mm 1 mps 725 mmHg 59%
    13:00 +12°C° 0 mm 1 mps 725 mmHg 59%
    14:00 +13°C° 0 mm 1 mps 724 mmHg 59%
    15:00 +12°C° 0 mm 2 mps 724 mmHg 63%
    16:00 +10°C° 0 mm 2 mps 724 mmHg 68%
    17:00 +9°C° 0 mm 2 mps 724 mmHg 72%
    18:00 +9°C° 0 mm 2 mps 724 mmHg 73%
    19:00 +8°C° 0 mm 2 mps 724 mmHg 74%
    20:00 +7°C° 0 mm 2 mps 724 mmHg 75%
    21:00 +7°C° 0 mm 2 mps 724 mmHg 74%
    22:00 +7°C° 0 mm 2 mps 724 mmHg 74%
    23:00 +7°C° 0 mm 2 mps 724 mmHg 73%

    12 December, Thursday

    Time Temperature Precipitation Wind Pressure Humidity
    00:00 +7°C° 0 mm 2 mps 724 mmHg 73%
    01:00 +8°C° 0 mm 1 mps 724 mmHg 74%
    02:00 +8°C° 0 mm 1 mps 724 mmHg 74%
    03:00 +7°C° 0 mm 2 mps 723 mmHg 74%
    04:00 +6°C° 0 mm 2 mps 723 mmHg 74%
    05:00 +6°C° 0 mm 2 mps 723 mmHg 75%
    06:00 +6°C° 0 mm 2 mps 723 mmHg 74%
    07:00 +7°C° 0 mm 1 mps 724 mmHg 73%
    08:00 +7°C° 0 mm 1 mps 724 mmHg 73%
    09:00 +9°C° 0 mm 1 mps 724 mmHg 67%
    10:00 +9°C° 0 mm 0 mps 724 mmHg 62%
    11:00 +11°C° 0 mm 0 mps 724 mmHg 56%
    12:00 +11°C° 0 mm 0 mps 724 mmHg 56%
    13:00 +12°C° 0 mm 1 mps 723 mmHg 55%
    14:00 +13°C° 0 mm 1 mps 723 mmHg 55%
    15:00 +12°C° 0 mm 1 mps 723 mmHg 60%
    16:00 +11°C° 0 mm 1 mps 723 mmHg 66%
    17:00 +10°C° 0 mm 1 mps 723 mmHg 71%
    18:00 +9°C° 0 mm 1 mps 723 mmHg 73%
    19:00 +8°C° 0 mm 0 mps 724 mmHg 74%
    20:00 +7°C° 0 mm 0 mps 724 mmHg 76%
    21:00 +7°C° 0 mm 0 mps 724 mmHg 77%
    22:00 +7°C° 0 mm 0 mps 724 mmHg 78%
    23:00 +7°C° 0 mm 0 mps 724 mmHg 79%
    Show more